Regional Weather Roundup
Issued by NWS

Home | Current Version | Previous Version | Text Only | Print | Product List | Glossary On
Versions: 1 2 3 4 5 6 7 8 9 10 11 12 13 14 15 16 17 18 19 20 21 22 23 24 25 26 27 28 29 30 31 32 33 34 35 36 37 38 39 40 41 42 43 44 45 46 47 48
000
ASUS43 KMPX 131110
RWRMN
WEATHER ROUNDUP FOR MINNESOTA
NATIONAL WEATHER SERVICE TWIN CITIES/CHANHASSEN MN
600 AM CDT THU AUG 13 2020


NOTE: "FAIR" INDICATES FEW OR NO CLOUDS BELOW 12,000 FEET WITH NO
SIGNIFICANT WEATHER AND/OR OBSTRUCTIONS TO VISIBILITY. N/A MEANS
CURRENT SKY AND/OR WEATHER CONDITIONS ARE NOT AVAILABLE.

MNZ060>063-068>070-131200-
   Twin Cities Metro

CITY           SKY/WX    TMP DP  RH WIND       PRES   REMARKS
TWIN CITIES    PTCLDY    69  66  90 S8        29.99F
ST PAUL        CLEAR     69  64  84 SE8       30.00F
CRYSTAL        CLEAR     69  65  86 SE6       29.98S
BLAINE         PTCLDY    70  66  88 S7        29.99S
LAKEVILLE      CLEAR     70  64  83 S5        30.00S
EDEN PRAIRIE   CLEAR     70  66  87 S7        29.97F
SOUTH ST PAUL  CLEAR     68  65  89 S6        30.00S
LAKE ELMO      FAIR      64  63  94 S3        30.02S
$$
MNZ001>005-007-008-013>017-022>024-027-028-131200-
   Northwest Minnesota

CITY           SKY/WX    TMP DP  RH WIND       PRES   REMARKS
BEMIDJI        CLOUDY    62  60  93 SE8       29.97F
HALLOCK        CLOUDY    64  63  94 E10       29.86F
ROSEAU         CLOUDY    63 N/A N/A E10       29.94F
WARROAD        PTCLDY    59  55  88 SE10      29.96F
THIEF RVR FALL CLOUDY    63  60  90 E15       29.91F
CROOKSTON      MOCLDY    66  63  88 SE12      29.86F
FOSSTON        CLEAR     63  57  82 SE10      29.91F
DETROIT LAKES    N/A     63  61  94 SE13      29.92F FOG
MOORHEAD       CLEAR     70  63  78 SE9       29.86S
PARK RAPIDS    CLOUDY    63  60  90 E10       29.95F
MAHNOMEN       PTSUNNY   64  62  93 SE13      29.89F
$$
MNZ006-009>011-018-025>026-131200-
   North Central Minnesota

CITY           SKY/WX    TMP DP  RH WIND       PRES   REMARKS
BAUDETTE       CLEAR     57  56  96 SE12      30.00F
FLAG ISLAND      N/A     64  57  77 SE10G18   29.98S
INTL FALLS     CLEAR     56  54  93 SE9       30.03F
WASKISH          N/A     57  54  88 E7        29.98F
BIG FORK       MOCLDY    57  55  94 CALM      30.07F
GRAND RAPIDS   CLOUDY    62  59  90 SE8       30.04F
CRANE LAKE     CLEAR     52  52 100 CALM      30.09F FOG
ORR              N/A     57  55  94 SE5       30.04F
COOK           CLOUDY    59  57  94 CALM      30.05F
WALKER         CLOUDY    62  60  93 E7        29.98F
$$
MNZ012-019>021-037-131200-
   Northeast Minnesota

CITY           SKY/WX    TMP DP  RH WIND       PRES   REMARKS
DULUTH         CLOUDY    62  58  86 E13       30.07F
ELY            MOCLDY    61  57  88 SE8       30.09F
HIBBING        CLOUDY    61  58  90 SE10      30.05F
EVELETH        CLOUDY    62  58  87 E7        30.08F
DULUTH HARBOR  CLOUDY    64  57  77 E9        30.07S
TWO HARBORS    PTCLDY    63  55  77 NE6       30.09S
SILVER BAY       N/A     63  61  94 CALM      30.11S
GRAND MARAIS     N/A     58  55  90 CALM      30.13R
G MARAIS ARPRT CLEAR     54  50  87 CALM      30.17R
$$
MNZ029>031-032-039>041-046>048-054>057-064-131200-
   West Central Minnesota

CITY           SKY/WX    TMP DP  RH WIND       PRES   REMARKS
FERGUS FALLS   CLOUDY    70  66  88 SE15      29.89S
WHEATON        CLOUDY    70  66  88 SE12      29.87S FOG
MORRIS         CLOUDY    70  70 100 SE15      29.90F FOG
ALEXANDRIA     FOG       66  66 100 SE12      29.95F VSB 1/2
ELBOW LAKE     CLOUDY    68  68 100 E13G20    29.89F
WADENA         CLOUDY    63  63 100 SE10      29.94F FOG
GLENWOOD       FOG       66  66 100 SE8       29.94F VSB 1/4
APPLETON       PTCLDY    70  66  88 SE9       29.89S
BENSON         CLOUDY    70  68  94 S8G16     29.92F FOG
ORTONVILLE     CLOUDY    68  66  94 SE10      29.88R FOG
MADISON        CLEAR     72  70  94 SE9       29.90R
WILLMAR        CLOUDY    72  70  94 SE8       29.97S FOG
$$
MNZ033>034-036-042>043-049>051-058-059-131200-
   Central Minnesota

CITY           SKY/WX    TMP DP  RH WIND       PRES   REMARKS
ST CLOUD       CLOUDY    64  62  93 SE6       29.97S
SAUK CENTRE    FOG       64  64 100 E5        29.95F VSB 1/2
PAYNESVILLE    FOG       69  69 100 SE9       29.96S VSB 1/2
AITKIN         CLOUDY    61  57  88 E7        30.00S
PINE RIVER     CLOUDY    61  57  88 SE8       30.01F
BRAINERD       CLOUDY    68  62  81 SE6       29.98F
STAPLES        CLOUDY    63  61  94 SE6       29.96S
LONG PRAIRIE   CLOUDY    63  61  94 SE5       29.96F FOG
LITTLE FALLS   CLOUDY    63  63 100 SE7       29.97S
CAMP RIPLEY    CLOUDY    64  62  96 SE6       29.98S
LITCHFIELD     CLOUDY    72  72 100 SE6       29.96F FOG
BUFFALO        CLEAR     67  65  93 MISG      29.99S
MAPLE LAKE       N/A     66  65  97 CALM      29.99S FOG
HUTCHINSON     CLOUDY    71  70  99 SE6       29.98S
$$
MNZ037-044-045-052-053-131200-
   East Central Minnesota

CITY           SKY/WX    TMP DP  RH WIND       PRES   REMARKS
PRINCETON      CLOUDY    66  64  94 E5        29.99F
MORA           CLOUDY    61  59  94 CALM      30.02F
CAMBRIDGE      PTCLDY    66  57  72 CALM      29.99F
RUSH CITY      CLOUDY    62  59  92 E5        30.01F
MOOSE LAKE     CLOUDY    63  59  88 E3        30.02F
HINCKLEY       CLOUDY    63  63 100 E7        30.02F
CLOQUET        CLOUDY    63  57  82 E9        30.05F
MCGREGOR       CLOUDY    63  61  94 E10       30.03F
$$
MNZ071>073-080-081-089-090-097-098-131200-
   Southwest Minnesota

CITY           SKY/WX    TMP DP  RH WIND       PRES   REMARKS
MONTEVIDEO     CLEAR     70  68  94 S7        29.92R
GRANITE FALLS  CLEAR     72  71  96 SE8       29.94S
CANBY          CLEAR     72  69  92 SE8       29.91S
MARSHALL       CLEAR     72  70  93 S12       29.92F
REDWOOD FALLS  CLOUDY    72  70  93 S10       29.94S
OLIVIA         CLOUDY    72  70  94 SE10      29.95S FOG
PIPESTONE        N/A     72  70  94 S9        29.95S
WINDOM         CLOUDY    72  70  94 S8        29.97S FOG
WORTHINGTON    CLOUDY    72  70  94 S8        29.99S
JACKSON        CLOUDY    72  72 100 S9        30.00S
TRACY          CLEAR     73  68  83 S12       29.94S
SLAYTON        CLEAR     69  64  84 S9        29.97F HAZE
$$
MNZ065>067-074>077-082>085-091>093-131200-
   South Central Minnesota

CITY           SKY/WX    TMP DP  RH WIND       PRES   REMARKS
MANKATO        MOCLDY    69  69 100 SE9       29.99F
NEW ULM        CLOUDY    72  70  94 S9        29.97S FOG
ST JAMES         N/A     72  72 100 SE10      29.97F
FAIRMONT       PTCLDY    71  70  96 SE7       30.00S
GLENCOE        MOCLDY    69  68  96 SE6       29.97F
FARIBAULT      CLEAR     70  64  83 SE8       30.01F
OWATONNA       CLEAR     68  64  88 SE12      30.02S
ALBERT LEA     CLEAR     66  64  94 S7        30.03S
$$
MNZ078>079-086>088-094>096-131200-
   Southeast Minnesota

CITY           SKY/WX    TMP DP  RH WIND       PRES   REMARKS
ROCHESTER      CLEAR     65  61  87 S9        30.06S
RED WING       CLEAR     70  63  78 SE7       30.01F
STANTON        CLEAR     69  64  83 S9        29.99F
DODGE CENTER   CLEAR     64  61  88 SE7       30.04F
WINONA         CLEAR     68  63  83 CALM      30.05S
AUSTIN         CLEAR     66  64  94 S3        30.05S
PRESTON        CLEAR     65  59  81 S7        30.08R
$$
ABBREVIATIONS USED IN REMARKS
   TC - TEMPERATURES IN CELSIUS
  WCI - WIND CHILL INDEX
   HX - HEAT INDEX
  VSB - VISIBILITY
$$




USA.gov is the U.S. government's official web portal to all federal, state and local government web resources and services.